Location: Ibarron
(43.3561°N, 1.5692°W)
Time: 20:06:53
(UTC+00:00)

Daily predictions for brighter satellites

Satellite Brightness Start Highest point End
(mag) Time Altitude Azimuth Time Altitude Azimuth Time Altitude Azimuth
NOSS 0 Rocket 4.4 20:17:25 10° NNW 20:23:34 63° WSW 20:29:38 10° S
USA 215 3.4 20:17:41 10° SE 20:24:14 81° SW 20:30:47 10° NW
COSMOS 2428 3.9 20:19:18 10° NW 20:24:39 42° WSW 20:29:56 10° S
Cosmos 1758 4.4 20:22:40 10° NNE 20:25:48 25° ENE 20:28:52 10° SE
Cosmos 2297 Rocket 2.5 20:20:46 10° SSW 20:26:24 75° WNW 20:32:06 10° NNE
MetOp-B 4.2 20:22:24 10° SSE 20:27:43 72° ENE 20:33:04 10° N
ADEOS 4.5 20:22:52 10° S 20:27:53 50° W 20:32:58 10° NNW
NOSS 3-4 (A) 3.9 20:30:44 10° SW 20:35:59 60° NW 20:41:46 10° NNE
NOSS 3-4 (C) 3.9 20:30:50 10° SW 20:36:05 61° NW 20:41:52 10° NNE
Cosmos 1437 Rocket 4.0 20:34:25 10° SE 20:37:07 21° E 20:39:52 10° NE
Cosmos 1455 1.5 20:36:08 10° N 20:38:49 51° E 20:41:28 10° SSE
SPOT 5 3.3 20:35:29 10° S 20:39:58 60° W 20:44:43 10° NNW
Cosmos 1300 3.5 20:37:15 10° NNW 20:40:13 40° W 20:43:10 10° SSW
Cosmos 614 Rocket 4.0 20:35:42 10° SSW 20:40:52 86° WNW 20:46:02 10° NNE
Lacrosse 4 Rocket 1.8 20:37:45 10° NNW 20:41:53 51° ENE 20:45:45 12° SE
Cosmos 1515 Rocket 4.3 20:41:39 10° SSE 20:45:39 35° E 20:49:42 10° NNE
Cosmos 921 Rocket 3.0 20:45:26 10° SSW 20:49:41 87° WNW 20:54:03 10° NNE
SL-4 R/B 2.4 20:46:12 10° SSW 20:50:06 41° SE 20:53:59 10° ENE
Helios 1B rocket 2.9 20:48:06 10° S 20:51:41 52° W 20:55:19 10° NNW
Cosmos 2263 Rocket 2.6 20:49:14 10° S 20:54:33 44° ESE 20:59:55 10° NE
SL-16 R/B 2.9 20:49:27 10° NNW 20:54:50 43° ENE 20:59:33 13° SE
Cosmos 2227 Rocket 2.2 20:49:43 10° SSW 20:55:21 88° ESE 21:01:03 10° NNE
CZ-4 R/B 4.0 20:54:43 10° SW 20:56:46 14° W 20:58:50 10° WNW
Ariane Rocket 3.8 20:53:47 13° SE 20:57:54 36° ENE 21:02:31 10° N
Cosmos 2173 Rocket 4.0 20:54:12 10° N 21:00:20 66° E 21:06:02 12° SSE
CZ-4B R/B 4.5 20:55:29 10° S 21:00:21 46° W 21:05:23 10° NNW
ATLAS CENTAUR R/B 1.3 21:00:20 10° NW 21:04:06 64° WSW 21:06:56 16° SSE
Meteor 1-13 Rocket 4.3 21:02:53 10° S 21:08:48 79° E 21:14:40 10° NNE
CZ-4B R/B 4.4 21:05:52 10° SSW 21:08:51 26° W 21:11:48 10° NW
Okean O Rocket 2.5 21:04:49 10° S 21:08:55 44° W 21:13:04 10° NNW
Cosmos 1818 4.5 21:04:12 10° SW 21:09:30 53° NW 21:14:51 10° NNE
Cosmos 1727 Rocket 4.3 21:04:52 10° SSW 21:11:00 71° W 21:17:11 10° N
RESURS DK-1 2.5 21:08:33 10° SSW 21:12:33 75° WNW 21:16:34 10° NNE
Meteor 1-23 Rocket 4.4 21:07:40 11° SSE 21:12:49 51° E 21:18:14 10° NNE
Cosmos 1992 Rocket 4.0 21:11:37 10° NNW 21:16:51 86° ENE 21:20:50 17° SSE
Cosmos 1269 Rocket 4.3 21:12:19 10° S 21:17:16 46° ESE 21:22:18 10° NNE
Meteor 2-10 Rocket 4.5 21:12:36 10° NNW 21:18:04 50° W 21:23:16 10° SSW
USA 290 2.8 21:16:29 22° SSE 21:18:04 37° ESE 21:21:03 10° NE
SL-14 R/B 4.3 21:17:04 10° SSW 21:20:50 46° WNW 21:24:38 10° N
Cosmos 2100 Rocket 4.0 21:15:01 10° N 21:21:11 83° W 21:26:53 12° S
Cosmos 2084 Rocket 3.3 21:17:51 10° NW 21:22:01 83° SW 21:24:34 22° SSE
SPOT 3 Rocket 3.6 21:19:02 18° SSE 21:22:52 66° ENE 21:27:59 10° N
Cosmos 1953 3.4 21:21:03 10° NNE 21:24:16 26° ENE 21:25:49 20° ESE
Cosmos 2219 3.2 21:19:22 10° SSW 21:25:02 67° ESE 21:30:45 10° NNE
Helios 1A 4.1 21:21:31 10° N 21:25:15 41° WNW 21:28:56 10° SW
IKONOS-2 4.5 21:21:18 10° NNE 21:25:27 82° WNW 21:29:35 10° SSW
SAR-Lupe-2 3.5 21:23:35 20° SSE 21:25:56 86° W 21:29:34 10° NNW
Cosmos 1725 Rocket 4.1 21:22:31 10° N 21:28:50 70° E 21:33:32 19° SSE
USA 307 3.5 21:31:29 23° ESE 21:31:29 23° ESE 21:33:46 10° ENE
Cosmos 2082 3.8 21:26:40 10° S 21:32:13 57° ESE 21:37:51 10° NNE
Spot 2 Rocket 3.9 21:31:24 14° S 21:35:39 60° W 21:40:42 10° NNW
Meteor 2-14 Rocket 4.5 21:29:58 10° S 21:36:07 84° W 21:42:17 10° N
ERS-1 Rocket 4.3 21:32:27 10° SSW 21:36:58 34° W 21:41:31 10° NNW
Iridium 51 4.0 21:33:27 10° N 21:37:03 61° E 21:38:32 31° SSE
Cosmos 2237 Rocket 4.0 21:37:05 10° NW 21:41:33 24° WSW 21:46:02 10° SSW
BREEZE-M DEB (TANK) 4.1 21:33:35 10° WNW 21:44:55 39° WSW 21:47:32 21° S
Okean 3 4.1 21:45:02 28° SE 21:46:16 35° E 21:50:00 10° NNE
Cosmos 2123 Rocket 4.2 21:41:35 10° SSW 21:47:51 72° W 21:54:07 10° N
Meteor 2-21 Rocket 4.4 21:48:34 19° S 21:53:13 75° E 21:59:22 10° NNE
Geosat 4.2 21:48:51 10° NE 21:53:42 48° ESE 21:56:17 25° S
BREEZE-M DEB (TANK) 3.9 21:52:10 10° W 21:53:53 16° SW 21:53:53 16° SW
Terra 3.7 21:53:46 10° SSW 21:57:30 23° W 22:01:16 10° NW
COSMOS 2455 4.4 21:52:41 10° NW 21:57:32 26° WSW 22:02:02 11° SSW
SL-8 R/B 3.6 21:56:52 10° WNW 22:01:38 70° SSW 22:03:42 33° SE
Cosmos 1844 Rocket 3.5 22:01:37 27° SE 22:03:09 32° ESE 22:08:07 10° NE
Cosmos 1140 Rocket 3.4 22:00:27 18° SSW 22:04:22 86° ESE 22:09:31 10° NNE
NOSS 3-1 (C) 4.4 22:02:19 10° NNW 22:09:27 61° NE 22:15:33 21° SE
Cosmos 1707 Rocket 4.0 22:12:26 37° SE 22:13:21 43° E 22:17:27 10° NNE
GP-B 3.1 22:12:05 10° N 22:16:28 76° W 22:18:22 33° SSW
Cosmos 1844 4.3 22:16:09 32° SE 22:17:28 36° ESE 22:22:30 10° NE
Cosmos 2061 Rocket 4.0 22:12:31 10° N 22:18:48 77° W 22:22:20 27° S
Cosmos 2228 Rocket 3.5 22:18:25 39° SE 22:19:24 46° E 22:23:38 10° NNE
Lacrosse 4 Rocket 3.6 22:16:48 10° WNW 22:19:25 16° WSW 22:21:21 12° SW
Cosmos 1703 2.9 22:21:35 60° ESE 22:21:49 63° E 22:25:17 10° NNE
Cosmos 1733 Rocket 3.1 22:22:25 10° N 22:26:46 62° E 22:27:50 46° SE
SL-4 R/B 3.1 22:24:06 10° W 22:28:06 45° NNW 22:32:02 10° NE
Cosmos 1447 Rocket 4.4 22:24:55 27° S 22:28:30 88° W 22:34:45 10° N
Aureole 3 Rocket 3.6 22:27:23 10° NNE 22:30:34 35° E 22:30:59 34° E
Okean 1-7 3.2 22:35:17 46° ESE 22:35:41 48° E 22:39:41 10° NNE
Cosmos 407 Rocket 3.4 22:33:48 32° SSW 22:36:14 90° E 22:41:22 10° NNE
Ariane Rocket 4.5 22:33:52 17° SW 22:36:48 29° W 22:41:11 10° NW
Cosmos 2263 Rocket 4.0 22:33:36 10° WSW 22:38:35 31° NW 22:43:36 10° N
SL-16 R/B 3.5 22:33:54 10° NW 22:38:43 29° WSW 22:41:25 20° SW
Cosmos 540 Rocket 3.7 22:34:53 10° NNW 22:39:56 56° ENE 22:41:36 38° ESE
ALOS 2 4.1 22:39:35 22° E 22:40:49 25° ENE 22:44:23 10° NNE
Cosmos 1892 2.7 22:50:32 55° NW 22:50:32 55° NW 22:53:08 10° N
ASTEX 1 3.3 22:47:26 10° N 22:52:24 85° E 22:53:49 48° S
Cosmos 2292 Rocket 3.8 22:53:54 35° WNW 22:53:54 35° WNW 22:56:34 10° N
Cosmos 1954 Rocket 4.3 22:52:58 44° SE 22:53:51 49° ESE 22:58:51 10° NNE
Cosmos 2251 Rocket 3.4 22:54:48 41° SSW 22:56:44 86° ESE 23:02:07 10° NNE
Cosmos 1943 3.4 22:51:27 10° NNW 22:57:04 61° WSW 22:58:53 41° S
Cosmos 1862 Rocket 3.8 22:56:28 42° SW 22:57:44 62° W 23:02:06 10° N
Cosmos 1953 4.2 22:56:35 10° NW 22:59:21 20° W 23:00:22 18° WSW
NOSS 3-1 (A) 4.3 22:52:49 10° NNW 22:59:59 63° NE 23:05:38 23° SE
Cosmos 1464 Rocket 4.0 22:54:03 10° N 23:00:20 72° E 23:02:35 41° SSE
USA 307 3.5 22:57:52 14° W 23:00:33 45° NNW 23:04:18 10° NE
Cosmos 1190 Rocket 3.9 22:59:08 48° S 23:00:34 72° ESE 23:05:50 10° NNE
ATLAS 2AS CENTAUR R/B 3.0 22:59:49 37° SSE 23:01:58 48° ESE 23:08:38 10° NE
SJ 16-02 2.5 23:04:19 29° E 23:04:19 29° E 23:07:41 10° NE
Cosmos 468 Rocket 4.0 23:00:09 10° NNW 23:05:18 67° ENE 23:06:38 47° SE
Landsat 5 3.5 23:02:16 10° NNE 23:06:27 60° E 23:06:35 60° ESE
Spot 4 4.1 23:05:39 47° SE 23:06:46 61° ENE 23:11:32 10° N
Cosmos 2034 Rocket 4.3 23:03:11 10° N 23:09:20 57° ENE 23:11:34 38° SE
CZ-4C R/B 3.7 23:06:47 10° N 23:09:53 44° WNW 23:09:57 44° WNW
Meteor 2-5 Rocket 4.4 23:10:07 37° SE 23:11:35 44° E 23:17:12 10° NNE
Cosmos 1603 3.6 23:12:48 10° NNW 23:18:26 77° WSW 23:19:55 50° S
ARIANE 5 R/B 2.7 23:23:38 58° SW 23:24:10 64° WSW 23:28:37 10° NNW
Cosmos 1300 Rocket 4.3 23:20:00 10° N 23:24:10 41° ENE 23:24:42 39° E
Cosmos 2344 4.2 23:17:05 10° NW 23:25:30 69° WSW 23:31:14 33° SSE
CZ-2C R/B 4.2 23:22:01 10° N 23:26:29 54° WNW 23:27:48 40° WSW
Cosmos 1763 Rocket 4.0 23:22:38 10° NNW 23:27:28 43° WSW 23:28:22 39° SW
USA 59 Rocket 0.4 23:23:59 10° NNW 23:27:38 56° NE 23:28:35 45° E
MetOp-A 4.0 23:29:15 50° SW 23:29:56 55° WSW 23:34:21 10° NNW
Cosmos 968 Rocket 4.3 23:33:29 34° ESE 23:33:49 34° E 23:38:30 10° NE
Cosmos 1634 Rocket 4.4 23:32:32 10° N 23:38:39 52° ENE 23:40:48 36° SE
Cosmos 1606 4.2 23:41:55 10° NNE 23:43:44 22° NE 23:43:44 22° NE
PSLV R/B 3.4 23:40:11 10° NNE 23:44:33 78° ESE 23:44:49 74° SSE
Cosmos 1703 Rocket 3.7 23:45:02 57° WSW 23:45:26 61° W 23:49:43 10° N
SL-12 R/B(2) 4.2 23:42:37 36° SSW 23:46:22 74° ESE 23:55:47 10° NE
Cosmos 1844 Rocket 3.8 23:43:12 19° WSW 23:46:53 40° WNW 23:52:13 10° NNE
Cosmos 1271 Rocket 3.7 23:47:03 35° WNW 23:47:03 35° WNW 23:50:25 10° N
Cosmos 1782 Rocket 3.5 23:45:24 10° N 23:49:50 76° E 23:50:08 72° ESE
